QPF
0.00 0.00 0.02 0.03 0.02 0.00 0.00 0.00 0.00 0.00 0.00 0.00 0.00 0.00 0.00 0.00 0.00 0.00 0.00 0.00 0.00 0.00 0.00 0.00 0.00 0.00 0.00 0.00 0.00 0.00 0.00 0.00 0.00 0.00 0.00 0.00 0.00 0.00 0.00 0.00 0.00 0.00 0.00 0.00 0.00 0.00 0.00 0.00 0.00 0.00 0.00 0.00 0.00 0.00 0.00 0.00 0.00 0.00 0.00 0.00 0.00 0.00 0.00
0.00 0.01 0.20 0.09 0.14 0.03 0.00 0.00 0.00 0.00 0.00 0.00 0.00 0.00 0.00 0.00 0.00 0.00 0.00 0.00 0.00 0.00 0.00 0.00 0.00 0.00 0.00 0.00 0.00 0.00 0.00 0.00 0.00 0.00 0.00 0.00 0.00 0.00 0.00 0.00 0.00 0.00 0.00 0.00 0.00 0.00 0.00 0.00 0.00 0.00 0.00 0.00 0.00 0.00 0.00 0.00 0.00 0.00 0.00 0.00 0.00 0.00 0.00
0.24 0.52 0.95 0.65 0.54 0.41 0.00 0.00 0.00 0.00 0.00 0.00 0.00 0.00 0.00 0.00 0.00 0.00 0.00 0.00 0.00 0.00 0.00 0.00 0.00 0.00 0.00 0.00 0.00 0.00 0.00 0.00 0.00 0.00 0.00 0.00 0.00 0.00 0.00 0.00 0.00 0.00 0.00 0.00 0.00 0.00 0.00 0.00 0.00 0.00 0.00 0.00 0.00 0.00 0.00 0.00 0.00 0.00 0.00 0.00 0.00 0.00 0.00
0.72 0.78 0.66 0.66 0.75 0.48 0.13 0.01 0.01 0.00 0.00 0.00 0.00 0.00 0.00 0.00 0.00 0.00 0.00 0.00 0.00 0.00 0.00 0.00 0.00 0.00 0.00 0.00 0.00 0.00 0.00 0.00 0.00 0.00 0.00 0.00 0.00 0.00 0.00 0.00 0.00 0.00 0.00 0.00 0.00 0.00 0.00 0.00 0.00 0.00 0.00 0.00 0.00 0.00 0.00 0.00 0.00 0.00 0.00 0.00 0.00 0.00 0.00
0.05 0.11 0.42 0.32 0.27 0.35 0.11 0.03 0.02 0.02 0.00 0.00 0.01 0.00 0.00 0.00 0.00 0.00 0.00 0.00 0.00 0.00 0.00 0.00 0.00 0.00 0.00 0.00 0.00 0.00 0.00 0.00 0.00 0.00 0.00 0.00 0.00 0.00 0.00 0.00 0.00 0.00 0.00 0.00 0.00 0.00 0.00 0.00 0.00 0.00 0.00 0.00 0.00 0.00 0.00 0.00 0.00 0.00 0.00 0.00 0.00 0.00 0.00
0.03 0.02 0.03 0.04 0.06 0.06 0.06 0.05 0.03 0.06 0.07 0.04 0.04 0.04 0.02 0.00 0.00 0.00 0.00 0.00 0.00 0.00 0.00 0.00 0.00 0.00 0.00 0.00 0.00 0.00 0.00 0.00 0.00 0.00 0.00 0.00 0.00 0.00 0.00 0.00 0.00 0.00 0.00 0.00 0.00 0.00 0.00 0.00 0.00 0.00 0.00 0.00 0.00 0.00 0.00 0.00 0.00 0.00 0.00 0.00 0.00 0.00 0.00
0.29 0.17 0.08 0.05 0.02 0.03 0.11 0.12 0.07 0.05 0.07 0.07 0.03 0.02 0.02 0.01 0.00 0.02 0.04 0.15 0.42 0.47 0.06 0.15 0.16 0.39 0.07 0.00 0.00 0.00 0.00 0.00 0.00 0.00 0.00 0.00 0.00 0.00 0.00 0.00 0.00 0.00 0.00 0.00 0.00 0.00 0.00 0.00 0.00 0.00 0.00 0.00 0.00 0.00 0.00 0.00 0.00 0.00 0.00 0.00 0.00 0.00 0.00
0.02 0.01 0.02 0.01 0.00 0.01 0.04 0.07 0.06 0.03 0.02 0.02 0.02 0.02 0.03 0.01 0.00 0.00 0.03 0.22 0.26 0.01 0.04 0.36 0.34 0.51 0.31 0.04 0.00 0.00 0.00 0.00 0.00 0.00 0.00 0.00 0.00 0.00 0.00 0.00 0.00 0.00 0.00 0.00 0.00 0.00 0.00 0.00 0.00 0.00 0.00 0.00 0.00 0.00 0.00 0.00 0.00 0.00 0.00 0.00 0.00 0.00 0.00
0.01 0.00 0.00 0.00 0.01 0.00 0.01 0.02 0.02 0.01 0.01 0.01 0.01 0.01 0.01 0.01 0.17 0.45 0.42 0.31 0.23 0.34 0.20 0.09 0.26 0.23 0.00 0.01 0.00 0.00 0.00 0.00 0.00 0.00 0.00 0.00 0.00 0.00 0.00 0.00 0.00 0.00 0.00 0.00 0.00 0.00 0.00 0.00 0.00 0.00 0.00 0.00 0.00 0.00 0.00 0.00 0.00 0.00 0.00 0.00 0.00 0.00 0.00
0.00 0.00 0.00 0.00 0.00 0.00 0.02 0.26 0.30 0.28 0.07 0.01 0.01 0.00 0.00 0.02 0.04 0.40 0.34 0.29 0.18 0.16 0.35 0.30 0.17 0.11 0.06 0.05 0.03 0.01 0.00 0.00 0.00 0.00 0.00 0.00 0.00 0.00 0.00 0.00 0.00 0.00 0.00 0.00 0.00 0.00 0.00 0.00 0.00 0.00 0.00 0.00 0.00 0.00 0.00 0.00 0.00 0.00 0.00 0.00 0.00 0.00 0.00
0.00 0.00 0.00 0.00 0.00 0.00 0.01 0.07 0.10 0.18 0.17 0.20 0.13 0.06 0.08 0.01 0.12 0.18 0.15 0.06 0.14 0.36 0.52 0.19 0.24 0.24 0.11 0.11 0.08 0.06 0.03 0.00 0.00 0.00 0.00 0.00 0.00 0.00 0.00 0.00 0.00 0.00 0.00 0.00 0.00 0.00 0.00 0.00 0.00 0.00 0.00 0.00 0.00 0.00 0.00 0.00 0.00 0.00 0.00 0.00 0.00 0.00 0.00
0.00 0.00 0.00 0.00 0.00 0.00 0.00 0.02 0.01 0.05 0.25 0.24 0.77 0.44 0.36 0.15 0.04 0.07 0.14 0.28 0.52 0.30 0.18 0.18 0.15 0.14 0.12 0.10 0.08 0.06 0.03 0.01 0.00 0.00 0.00 0.00 0.00 0.00 0.00 0.00 0.00 0.00 0.00 0.00 0.00 0.00 0.00 0.00 0.00 0.00 0.00 0.00 0.00 0.00 0.00 0.00 0.00 0.00 0.00 0.00 0.00 0.00 0.00
0.00 0.00 0.00 0.00 0.00 0.00 0.00 0.00 0.01 0.06 0.63 0.22 0.64 0.76 0.88 0.46 0.19 0.13 0.27 0.35 0.21 0.34 0.33 0.26 0.16 0.32 0.45 0.05 0.05 0.05 0.03 0.02 0.01 0.00 0.00 0.00 0.00 0.00 0.00 0.00 0.00 0.00 0.00 0.00 0.00 0.00 0.00 0.00 0.00 0.00 0.00 0.00 0.00 0.00 0.00 0.00 0.00 0.00 0.00 0.00 0.00 0.00 0.00
0.00 0.00 0.00 0.00 0.00 0.00 0.00 0.00 0.00 0.01 0.12 0.19 0.76 1.06 0.14 0.07 0.07 0.67 0.39 0.19 0.14 0.39 0.31 0.13 0.09 0.22 0.24 0.13 0.04 0.04 0.03 0.02 0.01 0.00 0.00 0.00 0.00 0.00 0.00 0.00 0.00 0.00 0.00 0.00 0.00 0.00 0.00 0.00 0.00 0.00 0.00 0.00 0.00 0.00 0.00 0.00 0.00 0.00 0.00 0.00 0.00 0.00 0.00
0.00 0.00 0.00 0.00 0.00 0.00 0.00 0.00 0.00 0.00 0.01 0.04 0.26 0.12 0.14 0.22 0.30 0.18 0.20 0.10 0.13 0.28 0.16 0.14 0.34 0.24 0.16 0.22 0.34 0.25 0.29 0.12 0.02 0.01 0.01 0.00 0.00 0.00 0.00 0.00 0.00 0.00 0.00 0.00 0.00 0.00 0.00 0.00 0.00 0.00 0.00 0.00 0.00 0.00 0.00 0.00 0.00 0.00 0.00 0.00 0.00 0.00 0.00
0.00 0.00 0.00 0.00 0.00 0.00 0.00 0.00 0.00 0.00 0.00 0.00 0.01 0.05 0.09 0.15 0.46 0.19 0.02 0.02 0.21 0.16 0.32 0.33 0.30 0.40 0.52 0.51 0.38 0.40 0.29 0.26 0.12 0.06 0.00 0.00 0.00 0.00 0.00 0.00 0.00 0.00 0.00 0.00 0.00 0.00 0.00 0.00 0.00 0.00 0.00 0.00 0.00 0.00 0.00 0.00 0.00 0.00 0.00 0.00 0.00 0.00 0.00
0.00 0.00 0.00 0.00 0.00 0.00 0.00 0.00 0.00 0.00 0.00 0.00 0.01 0.06 0.03 0.04 0.10 0.05 0.11 0.05 0.15 0.15 0.16 0.24 0.41 0.50 0.54 0.29 0.18 0.36 0.28 0.17 0.04 0.00 0.00 0.00 0.00 0.00 0.00 0.00 0.00 0.00 0.00 0.00 0.00 0.00 0.00 0.00 0.00 0.00 0.00 0.00 0.00 0.00 0.00 0.00 0.00 0.00 0.00 0.00 0.00 0.00 0.00
0.00 0.00 0.00 0.00 0.00 0.00 0.00 0.00 0.00 0.00 0.00 0.00 0.00 0.01 0.03 0.02 0.04 0.06 0.02 0.01 0.02 0.10 0.18 0.14 0.06 0.21 0.32 0.22 0.17 0.12 0.09 0.10 0.09 0.06 0.00 0.00 0.00 0.00 0.00 0.00 0.00 0.00 0.00 0.00 0.00 0.00 0.00 0.00 0.00 0.00 0.00 0.00 0.00 0.00 0.00 0.00 0.00 0.00 0.00 0.00 0.00 0.00 0.00
0.00 0.00 0.00 0.00 0.00 0.00 0.00 0.00 0.00 0.00 0.00 0.00 0.00 0.00 0.01 0.07 0.06 0.02 0.01 0.00 0.00 0.02 0.09 0.22 0.13 0.12 0.09 0.10 0.31 0.21 0.24 0.12 0.08 0.05 0.00 0.00 0.00 0.01 0.00 0.00 0.00 0.00 0.00 0.00 0.00 0.00 0.00 0.00 0.00 0.00 0.00 0.00 0.00 0.00 0.00 0.00 0.00 0.00 0.00 0.00 0.00 0.00 0.00
0.00 0.00 0.00 0.00 0.00 0.00 0.00 0.00 0.00 0.00 0.00 0.00 0.00 0.00 0.00 0.05 0.08 0.02 0.00 0.00 0.00 0.00 0.00 0.10 0.18 0.07 0.08 0.10 0.19 0.13 0.19 0.15 0.13 0.06 0.02 0.14 0.23 0.24 0.14 0.08 0.02 0.00 0.00 0.00 0.00 0.00 0.00 0.00 0.00 0.00 0.00 0.00 0.00 0.00 0.00 0.00 0.00 0.00 0.00 0.00 0.00 0.00 0.00
0.00 0.00 0.00 0.00 0.00 0.00 0.00 0.00 0.00 0.00 0.00 0.00 0.00 0.00 0.00 0.00 0.00 0.01 0.00 0.00 0.00 0.00 0.00 0.00 0.00 0.03 0.00 0.00 0.00 0.01 0.01 0.01 0.01 0.01 0.01 0.08 0.22 0.17 0.16 0.13 0.09 0.05 0.04 0.00 0.00 0.00 0.00 0.00 0.00 0.00 0.00 0.00 0.00 0.00 0.00 0.00 0.00 0.00 0.00 0.00 0.00 0.00 0.00
0.00 0.00 0.00 0.00 0.00 0.00 0.00 0.00 0.00 0.00 0.00 0.00 0.00 0.00 0.00 0.00 0.02 0.00 0.00 0.00 0.00 0.00 0.00 0.00 0.00 0.00 0.00 0.00 0.00 0.00 0.00 0.00 0.00 0.00 0.00 0.00 0.02 0.04 0.10 0.12 0.13 0.13 0.07 0.09 0.27 0.17 0.03 0.00 0.00 0.00 0.00 0.00 0.00 0.00 0.00 0.00 0.00 0.00 0.00 0.00 0.00 0.00 0.00
0.00 0.00 0.00 0.00 0.00 0.00 0.00 0.00 0.00 0.00 0.00 0.00 0.00 0.00 0.00 0.00 0.00 0.00 0.00 0.00 0.00 0.00 0.00 0.00 0.00 0.00 0.00 0.00 0.00 0.00 0.01 0.03 0.00 0.00 0.00 0.00 0.00 0.00 0.01 0.03 0.04 0.05 0.15 0.16 0.20 0.41 0.47 0.33 0.11 0.03 0.02 0.05 0.01 0.00 0.00 0.00 0.00 0.00 0.00 0.00 0.00 0.00 0.00
0.00 0.00 0.00 0.00 0.00 0.00 0.00 0.00 0.00 0.00 0.00 0.00 0.00 0.00 0.00 0.00 0.00 0.00 0.00 0.00 0.00 0.00 0.00 0.00 0.00 0.00 0.00 0.00 0.00 0.00 0.00 0.00 0.00 0.00 0.00 0.00 0.00 0.00 0.00 0.00 0.00 0.00 0.00 0.06 0.17 0.22 0.21 0.17 0.24 0.19 0.18 0.17 0.14 0.04 0.05 0.01 0.00 0.00 0.00 0.00 0.00 0.00 0.00
0.00 0.00 0.00 0.00 0.00 0.00 0.00 0.00 0.00 0.00 0.00 0.00 0.00 0.00 0.00 0.00 0.00 0.00 0.00 0.00 0.00 0.00 0.00 0.00 0.00 0.00 0.00 0.00 0.00 0.00 0.00 0.00 0.00 0.00 0.00 0.00 0.00 0.00 0.00 0.00 0.00 0.00 0.00 0.00 0.00 0.00 0.05 0.10 0.06 0.09 0.16 0.33 0.42 0.27 0.22 0.30 0.16 0.08 0.07 0.07 0.03 0.01 0.02
0.00 0.00 0.00 0.00 0.00 0.00 0.00 0.00 0.00 0.00 0.00 0.00 0.00 0.00 0.00 0.00 0.00 0.00 0.00 0.00 0.00 0.00 0.00 0.00 0.00 0.00 0.00 0.00 0.00 0.00 0.00 0.00 0.00 0.00 0.00 0.00 0.00 0.00 0.00 0.00 0.00 0.00 0.00 0.00 0.00 0.00 0.00 0.00 0.02 0.03 0.04 0.11 0.17 0.34 0.33 0.28 0.29 0.40 0.07 0.13 0.06 0.02 0.00
0.00 0.00 0.00 0.00 0.00 0.00 0.00 0.00 0.00 0.00 0.00 0.00 0.00 0.00 0.00 0.00 0.00 0.00 0.00 0.00 0.00 0.00 0.00 0.00 0.00 0.00 0.00 0.00 0.00 0.00 0.00 0.00 0.00 0.00 0.00 0.00 0.00 0.00 0.00 0.00 0.00 0.00 0.00 0.00 0.00 0.00 0.00 0.00 0.00 0.00 0.01 0.02 0.06 0.11 0.12 0.18 0.23 0.26 0.20 0.18 0.16 0.02 0.12
0.00 0.00 0.00 0.00 0.00 0.00 0.00 0.00 0.00 0.00 0.00 0.00 0.00 0.00 0.00 0.00 0.00 0.00 0.00 0.00 0.00 0.00 0.00 0.00 0.00 0.00 0.00 0.00 0.00 0.00 0.00 0.00 0.00 0.00 0.00 0.00 0.00 0.00 0.00 0.00 0.00 0.00 0.00 0.00 0.00 0.00 0.00 0.00 0.00 0.00 0.00 0.00 0.04 0.03 0.05 0.07 0.08 0.17 0.11 0.19 0.31 0.27 0.01
0.00 0.00 0.00 0.00 0.00 0.00 0.00 0.00 0.00 0.00 0.00 0.00 0.00 0.00 0.00 0.00 0.00 0.00 0.00 0.00 0.00 0.00 0.00 0.00 0.00 0.00 0.00 0.00 0.00 0.00 0.00 0.00 0.00 0.00 0.00 0.00 0.00 0.00 0.00 0.00 0.00 0.00 0.00 0.00 0.00 0.00 0.00 0.00 0.00 0.00 0.00 0.00 0.00 0.00 0.00 0.00 0.02 0.04 0.02 0.02 0.05 0.06 0.07
0.00 0.00 0.00 0.00 0.00 0.00 0.00 0.00 0.00 0.00 0.00 0.00 0.00 0.00 0.00 0.00 0.00 0.00 0.00 0.00 0.00 0.00 0.00 0.00 0.00 0.00 0.00 0.00 0.00 0.00 0.00 0.00 0.00 0.00 0.00 0.00 0.00 0.00 0.00 0.00 0.00 0.00 0.00 0.00 0.00 0.00 0.00 0.00 0.00 0.00 0.00 0.00 0.00 0.00 0.00 0.00 0.00 0.00 0.00 0.00 0.00 0.00 0.01
0.00 0.00 0.00 0.00 0.00 0.00 0.00 0.00 0.00 0.00 0.00 0.00 0.00 0.00 0.00 0.00 0.00 0.00 0.00 0.00 0.00 0.00 0.00 0.00 0.00 0.00 0.00 0.00 0.00 0.00 0.00 0.00 0.00 0.00 0.00 0.00 0.00 0.00 0.00 0.00 0.00 0.00 0.00 0.00 0.00 0.00 0.00 0.00 0.00 0.00 0.00 0.00 0.00 0.00 0.00 0.00 0.00 0.00 0.01 0.00 0.00 0.01 0.03
0.01 0.02 0.01 0.00 0.00 0.00 0.00 0.00 0.00 0.00 0.00 0.00 0.00 0.00 0.00 0.00 0.00 0.00 0.00 0.00 0.00 0.00 0.00 0.00 0.00 0.00 0.00 0.00 0.00 0.00 0.00 0.00 0.00 0.00 0.00 0.00 0.00 0.00 0.00 0.00 0.00 0.00 0.00 0.00 0.00 0.00 0.00 0.00 0.00 0.00 0.00 0.00 0.00 0.00 0.00 0.00 0.00 0.00 0.00 0.00 0.00 0.00 0.00
0.00 0.00 0.00 0.00 0.00 0.00 0.00 0.00 0.00 0.00 0.00 0.00 0.00 0.00 0.00 0.00 0.00 0.00 0.00 0.00 0.00 0.00 0.00 0.00 0.00 0.00 0.00 0.00 0.00 0.00 0.00 0.00 0.00 0.00 0.00 0.00 0.00 0.00 0.00 0.00 0.00 0.00 0.00 0.00 0.00 0.00 0.00 0.00 0.00 0.00 0.00 0.00 0.00 0.00 0.00 0.00 0.00 0.00 0.00 0.00 0.00 0.00 0.00
0.00 0.00 0.00 0.00 0.00 0.00 0.00 0.00 0.00 0.00 0.00 0.00 0.00 0.00 0.00 0.00 0.00 0.00 0.00 0.00 0.00 0.00 0.00 0.00 0.00 0.00 0.00 0.00 0.00 0.00 0.00 0.00 0.00 0.00 0.00 0.00 0.00 0.00 0.00 0.00 0.00 0.00 0.00 0.00 0.00 0.00 0.00 0.00 0.00 0.00 0.00 0.00 0.00 0.00 0.00 0.00 0.00 0.00 0.00 0.00 0.00 0.00 0.00
0.00 0.00 0.00 0.00 0.00 0.00 0.00 0.00 0.00 0.00 0.00 0.00 0.00 0.00 0.00 0.00 0.00 0.00 0.00 0.00 0.00 0.00 0.00 0.00 0.00 0.00 0.00 0.00 0.00 0.00 0.00 0.00 0.00 0.00 0.00 0.00 0.00 0.00 0.00 0.00 0.00 0.00 0.00 0.00 0.00 0.00 0.00 0.00 0.00 0.00 0.00 0.00 0.00 0.00 0.00 0.00 0.00 0.00 0.00 0.00 0.00 0.00 0.00
0.00 0.00 0.00 0.00 0.00 0.00 0.00 0.00 0.00 0.00 0.00 0.00 0.00 0.00 0.00 0.00 0.00 0.00 0.00 0.00 0.00 0.00 0.00 0.00 0.00 0.00 0.00 0.00 0.00 0.00 0.00 0.00 0.00 0.00 0.00 0.00 0.00 0.00 0.00 0.00 0.00 0.00 0.00 0.00 0.00 0.00 0.00 0.00 0.00 0.00 0.00 0.00 0.00 0.00 0.00 0.00 0.00 0.00 0.00 0.00 0.00 0.00 0.00
0.00 0.00 0.00 0.00 0.00 0.00 0.00 0.00 0.00 0.00 0.00 0.00 0.00 0.00 0.00 0.00 0.00 0.00 0.00 0.00 0.00 0.00 0.00 0.00 0.00 0.00 0.00 0.00 0.00 0.00 0.00 0.00 0.00 0.00 0.00 0.00 0.00 0.00 0.00 0.00 0.00 0.00 0.00 0.00 0.00 0.00 0.00 0.00 0.00 0.00 0.00 0.00 0.00 0.00 0.00 0.00 0.00 0.00 0.00 0.00 0.00 0.00 0.00
0.00 0.00 0.00 0.00 0.00 0.00 0.00 0.00 0.00 0.00 0.00 0.00 0.00 0.00 0.00 0.00 0.00 0.00 0.00 0.00 0.00 0.00 0.00 0.00 0.00 0.00 0.00 0.00 0.00 0.00 0.00 0.00 0.00 0.00 0.00 0.00 0.00 0.00 0.00 0.00 0.00 0.00 0.00 0.00 0.00 0.00 0.00 0.00 0.00 0.00 0.00 0.00 0.00 0.00 0.00 0.00 0.00 0.00 0.00 0.00 0.00 0.00 0.00
MSLP
1015.25 1015.61 1015.61 1015.61 1015.93 1015.93 1015.93 1015.93 1015.77 1015.89 1016.01 1016.25 1016.41 1016.53 1016.73 1016.93 1017.09 1017.33 1017.65 1017.93 1018.21 1018.53 1018.57 1018.69 1018.89 1019.05 1019.25 1019.41 1019.49 1019.57 1019.57 1019.61 1019.69 1019.81 1019.97 1020.09 1020.17 1020.41 1020.65 1020.69 1020.77 1020.81 1020.81 1021.01 1020.97 1020.93 1020.77 1020.73 1020.85 1020.89 1020.97 1021.05 1021.13 1021.17 1021.17 1021.21 1021.33 1021.37 1021.41 1021.49 1021.57 1021.65 1021.77
1015.73 1016.21 1016.93 1016.97 1016.77 1016.53 1016.09 1015.65 1015.77 1015.77 1015.89 1016.05 1016.21 1016.33 1016.49 1016.73 1016.93 1017.25 1017.41 1017.65 1017.89 1018.13 1018.33 1018.49 1018.69 1018.89 1018.97 1019.17 1019.33 1019.41 1019.53 1019.53 1019.53 1019.57 1019.69 1019.85 1019.97 1020.17 1020.21 1020.41 1020.53 1020.65 1020.69 1020.61 1020.61 1020.61 1020.65 1020.69 1020.73 1020.85 1020.97 1021.01 1021.05 1021.01 1021.09 1021.13 1021.21 1021.29 1021.41 1021.49 1021.61 1021.73 1021.77
1016.77 1017.37 1017.33 1017.05 1016.65 1016.29 1016.13 1015.89 1015.57 1015.57 1015.69 1015.89 1015.97 1016.17 1016.33 1016.45 1016.57 1016.81 1017.17 1017.53 1017.89 1018.01 1018.13 1018.29 1018.45 1018.61 1018.69 1018.89 1019.17 1019.29 1019.29 1019.37 1019.45 1019.57 1019.77 1019.85 1020.01 1020.05 1020.13 1020.25 1020.29 1020.41 1020.45 1020.41 1020.45 1020.57 1020.49 1020.65 1020.65 1020.73 1020.85 1021.01 1020.97 1021.01 1021.05 1021.13 1021.17 1021.21 1021.29 1021.37 1021.53 1021.69 1021.77
1017.13 1017.37 1017.09 1016.57 1016.21 1015.89 1015.77 1015.85 1015.61 1015.53 1015.57 1015.69 1015.73 1015.73 1015.93 1016.13 1016.21 1016.41 1016.65 1017.01 1017.49 1017.85 1018.13 1018.09 1018.17 1018.37 1018.45 1018.65 1018.81 1018.97 1019.13 1019.13 1019.21 1019.37 1019.53 1019.65 1019.85 1019.93 1020.13 1020.25 1020.29 1020.25 1020.45 1020.45 1020.29 1020.33 1020.33 1020.41 1020.61 1020.65 1020.69 1020.89 1020.97 1020.93 1021.01 1021.05 1021.13 1021.17 1021.21 1021.29 1021.49 1021.57 1021.65
1016.49 1016.49 1016.61 1016.61 1016.49 1016.13 1015.89 1015.89 1015.61 1015.57 1015.57 1015.41 1015.45 1015.57 1015.73 1015.93 1016.09 1016.33 1016.53 1016.61 1016.85 1017.29 1017.37 1017.57 1017.73 1017.85 1018.01 1018.13 1018.37 1018.61 1018.81 1018.97 1019.13 1019.21 1019.33 1019.45 1019.53 1019.73 1020.01 1020.13 1020.17 1020.21 1020.13 1020.13 1020.17 1020.25 1020.29 1020.41 1020.53 1020.57 1020.65 1020.69 1020.85 1020.89 1020.97 1020.97 1021.05 1021.13 1021.21 1021.25 1021.45 1021.49 1021.57
1016.41 1016.25 1016.33 1016.25 1016.09 1015.85 1015.85 1015.93 1015.89 1015.61 1015.33 1015.49 1015.77 1015.93 1016.01 1016.17 1016.33 1016.57 1016.57 1016.65 1016.89 1017.01 1017.33 1017.65 1017.85 1017.93 1018.17 1018.21 1018.37 1018.57 1018.69 1018.81 1018.89 1018.97 1019.09 1019.13 1019.29 1019.53 1019.65 1019.69 1019.81 1019.93 1020.05 1020.01 1019.97 1020.05 1020.05 1020.21 1020.37 1020.45 1020.61 1020.61 1020.69 1020.81 1020.81 1020.93 1020.93 1021.01 1021.13 1021.25 1021.33 1021.37 1021.53
1016.21 1016.13 1016.21 1016.33 1016.17 1016.01 1016.01 1016.13 1016.13 1015.97 1015.77 1015.89 1016.01 1016.05 1016.33 1016.61 1016.85 1017.01 1017.29 1017.97 1018.29 1018.65 1018.49 1018.01 1017.73 1017.81 1018.21 1018.41 1018.61 1018.65 1018.77 1018.81 1018.85 1018.97 1018.89 1018.97 1018.97 1019.13 1019.25 1019.33 1019.49 1019.61 1019.65 1019.73 1020.01 1019.93 1020.13 1020.17 1020.21 1020.29 1020.37 1020.49 1020.61 1020.69 1020.73 1020.81 1020.89 1020.85 1021.05 1021.21 1021.33 1021.33 1021.33
1016.13 1016.17 1016.13 1016.29 1016.29 1016.17 1016.29 1016.33 1016.41 1016.29 1016.01 1015.97 1016.25 1016.49 1016.85 1016.93 1017.05 1017.17 1017.45 1017.73 1018.25 1018.49 1018.25 1017.73 1017.53 1017.97 1018.49 1018.49 1018.41 1018.57 1018.69 1018.77 1018.73 1018.81 1018.93 1019.13 1019.25 1019.33 1019.29 1019.33 1019.37 1019.37 1019.53 1019.81 1019.77 1019.81 1019.97 1020.05 1020.05 1020.09 1020.21 1020.37 1020.49 1020.57 1020.57 1020.65 1020.69 1020.77 1020.89 1021.17 1021.29 1021.33 1021.29
1016.05 1015.93 1015.97 1015.93 1016.13 1016.29 1016.45 1016.61 1016.77 1016.77 1016.73 1016.65 1016.61 1016.69 1016.85 1017.17 1017.17 1017.37 1017.61 1017.81 1017.69 1017.53 1017.61 1017.37 1017.57 1017.97 1018.21 1018.33 1018.41 1018.45 1018.45 1018.45 1018.57 1018.57 1018.73 1018.93 1019.09 1019.29 1019.25 1019.21 1019.25 1019.25 1019.49 1019.61 1019.61 1019.61 1019.73 1019.81 1019.89 1019.97 1020.09 1020.25 1020.33 1020.45 1020.57 1020.57 1020.61 1020.65 1020.81 1020.97 1021.13 1021.25 1021.25
1016.25 1016.25 1016.17 1016.05 1015.97 1016.21 1016.53 1016.69 1016.77 1016.85 1017.21 1017.33 1017.13 1017.01 1017.09 1017.13 1016.89 1016.85 1017.29 1017.65 1017.81 1017.81 1017.65 1017.57 1017.89 1018.33 1018.49 1018.49 1018.49 1018.45 1018.37 1018.37 1018.41 1018.49 1018.61 1018.85 1018.93 1019.05 1019.01 1019.01 1019.05 1019.09 1019.33 1019.41 1019.45 1019.61 1019.53 1019.57 1019.69 1019.81 1020.01 1020.17 1020.25 1020.33 1020.41 1020.49 1020.53 1020.53 1020.61 1020.77 1020.93 1021.09 1021.13
1016.41 1016.53 1016.61 1016.57 1016.65 1016.77 1016.85 1016.97 1017.21 1017.21 1017.25 1017.61 1017.53 1017.33 1017.21 1017.17 1016.81 1016.57 1017.17 1017.65 1017.93 1017.93 1017.65 1017.73 1017.89 1018.17 1018.45 1018.45 1018.57 1018.57 1018.53 1018.53 1018.49 1018.61 1018.73 1018.77 1018.81 1018.93 1019.01 1019.09 1019.09 1019.01 1019.09 1019.21 1019.37 1019.37 1019.49 1019.57 1019.53 1019.73 1019.93 1020.09 1020.13 1020.17 1020.25 1020.25 1020.29 1020.45 1020.49 1020.53 1020.57 1020.77 1020.89
1016.85 1016.93 1017.09 1017.09 1017.05 1017.17 1017.37 1017.41 1017.49 1017.61 1017.77 1017.85 1017.89 1017.61 1017.17 1016.89 1016.85 1016.93 1017.53 1018.21 1018.29 1017.93 1017.85 1018.01 1018.09 1018.25 1018.37 1018.41 1018.57 1018.57 1018.57 1018.57 1018.61 1018.65 1018.73 1018.81 1018.81 1018.85 1018.93 1019.01 1019.05 1019.05 1019.05 1019.01 1019.17 1019.21 1019.25 1019.41 1019.57 1019.65 1019.73 1019.77 1019.81 1019.81 1019.85 1019.89 1020.01 1020.13 1020.21 1020.25 1020.33 1020.49 1020.61
1017.21 1017.25 1017.29 1017.41 1017.53 1017.61 1017.65 1017.77 1017.97 1018.13 1018.09 1018.09 1018.01 1017.73 1017.41 1017.29 1017.33 1017.37 1017.61 1017.85 1017.69 1017.49 1017.57 1017.73 1017.93 1018.05 1018.25 1018.41 1018.53 1018.57 1018.53 1018.53 1018.57 1018.57 1018.69 1018.73 1018.73 1018.77 1018.85 1018.93 1018.97 1019.01 1019.05 1019.01 1019.09 1019.13 1019.17 1019.21 1019.33 1019.37 1019.53 1019.53 1019.53 1019.65 1019.69 1019.73 1019.77 1019.89 1019.97 1020.05 1020.17 1020.29 1020.45
1017.61 1017.65 1017.69 1017.77 1017.85 1018.01 1018.21 1018.29 1018.17 1018.21 1018.13 1018.05 1018.05 1017.73 1017.33 1017.17 1017.33 1017.57 1017.37 1017.25 1017.21 1017.41 1017.57 1017.57 1017.81 1018.05 1018.37 1018.61 1018.65 1018.57 1018.49 1018.41 1018.41 1018.45 1018.53 1018.57 1018.69 1018.77 1018.77 1018.81 1018.89 1018.89 1018.85 1018.89 1019.09 1019.17 1019.21 1019.21 1019.17 1019.09 1019.17 1019.29 1019.37 1019.29 1019.29 1019.49 1019.65 1019.73 1019.77 1019.89 1019.97 1020.13 1020.25
1018.21 1018.25 1018.21 1018.25 1018.37 1018.33 1018.37 1018.45 1018.53 1018.45 1018.33 1018.17 1018.01 1017.81 1017.61 1017.53 1017.49 1017.45 1017.61 1017.25 1017.33 1017.65 1017.65 1017.57 1017.97 1018.41 1018.61 1018.93 1019.13 1019.13 1018.97 1018.85 1018.53 1018.49 1018.61 1018.65 1018.77 1018.81 1018.85 1018.85 1018.89 1018.89 1018.93 1018.89 1018.93 1018.93 1018.97 1019.01 1019.01 1019.05 1019.05 1019.01 1019.09 1019.21 1019.21 1019.33 1019.41 1019.41 1019.53 1019.73 1019.81 1019.85 1020.01
1018.45 1018.53 1018.53 1018.61 1018.69 1018.65 1018.61 1018.53 1018.53 1018.61 1018.49 1018.21 1018.05 1018.05 1018.05 1018.05 1017.97 1017.77 1017.65 1017.65 1017.89 1018.05 1017.93 1018.13 1018.45 1018.33 1018.17 1018.09 1018.21 1018.73 1019.21 1019.45 1019.29 1018.93 1018.77 1018.89 1018.97 1019.05 1019.01 1018.97 1018.93 1018.97 1019.05 1018.97 1018.81 1018.81 1018.81 1018.85 1018.85 1018.89 1018.85 1018.89 1018.89 1018.93 1019.09 1019.17 1019.05 1019.01 1019.01 1019.09 1019.33 1019.53 1019.65
1018.69 1018.77 1018.77 1018.77 1018.77 1018.69 1018.65 1018.65 1018.65 1018.61 1018.53 1018.45 1018.29 1018.13 1018.01 1017.89 1017.81 1017.77 1017.81 1017.81 1018.01 1018.05 1017.85 1017.69 1017.97 1018.05 1018.13 1018.29 1018.25 1018.29 1018.69 1019.25 1019.49 1019.21 1019.05 1018.97 1018.97 1019.01 1019.05 1019.01 1018.97 1019.01 1019.05 1019.05 1018.97 1018.89 1018.77 1018.69 1018.77 1018.73 1018.65 1018.61 1018.61 1018.73 1018.77 1018.77 1018.65 1018.65 1018.77 1018.89 1018.93 1019.13 1019.45
1018.77 1018.81 1018.89 1018.85 1018.73 1018.61 1018.57 1018.53 1018.53 1018.61 1018.69 1018.61 1018.45 1018.33 1018.25 1018.05 1017.81 1017.73 1017.93 1017.93 1018.09 1018.13 1018.01 1017.97 1018.09 1018.45 1018.77 1018.81 1018.89 1018.85 1018.81 1019.05 1019.25 1019.41 1019.29 1019.17 1019.17 1019.05 1018.89 1018.85 1018.97 1019.13 1019.17 1019.09 1019.05 1018.89 1018.73 1018.73 1018.61 1018.53 1018.53 1018.49 1018.41 1018.41 1018.37 1018.33 1018.21 1018.33 1018.57 1018.73 1018.93 1019.09 1019.21
1018.65 1018.77 1018.89 1018.93 1018.89 1018.81 1018.65 1018.61 1018.57 1018.61 1018.65 1018.65 1018.65 1018.65 1018.57 1018.37 1018.29 1018.17 1018.05 1018.13 1018.37 1018.37 1018.45 1018.65 1018.77 1019.09 1019.45 1019.41 1019.41 1019.45 1019.33 1019.29 1019.53 1019.57 1019.37 1019.29 1019.25 1019.21 1019.09 1018.93 1018.93 1019.05 1019.21 1019.21 1019.01 1018.89 1018.97 1018.85 1018.61 1018.49 1018.41 1018.45 1018.53 1018.45 1018.21 1018.13 1017.97 1018.13 1018.25 1018.41 1018.57 1018.73 1018.93
1018.57 1018.77 1018.89 1018.93 1018.93 1018.81 1018.81 1018.73 1018.69 1018.61 1018.57 1018.65 1018.65 1018.65 1018.69 1018.85 1018.85 1018.57 1018.37 1018.49 1018.69 1018.85 1019.05 1019.25 1019.49 1019.61 1019.69 1019.61 1019.61 1019.53 1019.57 1019.61 1019.65 1019.57 1019.45 1019.41 1019.37 1019.37 1019.45 1019.41 1019.13 1018.97 1019.01 1019.13 1019.09 1019.09 1019.09 1018.97 1018.89 1018.69 1018.61 1018.57 1018.57 1018.49 1018.37 1018.33 1018.17 1018.13 1018.17 1018.25 1018.37 1018.49 1018.73
1018.73 1018.77 1018.97 1019.09 1019.01 1018.89 1019.01 1019.09 1019.09 1019.01 1018.97 1018.93 1018.89 1018.81 1018.81 1018.89 1018.85 1018.81 1018.89 1018.97 1019.13 1019.21 1019.41 1019.69 1019.85 1019.85 1019.73 1019.73 1019.69 1019.61 1019.57 1019.57 1019.53 1019.57 1019.57 1019.53 1019.53 1019.49 1019.49 1019.53 1019.41 1019.09 1019.09 1019.41 1019.57 1019.57 1019.49 1019.33 1019.21 1019.01 1018.81 1018.69 1018.57 1018.61 1018.57 1018.41 1018.37 1018.49 1018.49 1018.45 1018.49 1018.53 1018.77
1018.77 1018.85 1019.05 1019.05 1019.05 1019.09 1019.13 1019.21 1019.29 1019.25 1019.29 1019.17 1019.13 1019.09 1019.01 1019.13 1019.01 1019.13 1019.45 1019.41 1019.57 1019.65 1019.69 1019.85 1019.97 1020.01 1019.93 1019.93 1019.85 1019.85 1019.77 1019.73 1019.73 1019.73 1019.73 1019.77 1019.73 1019.69 1019.69 1019.73 1019.69 1019.49 1019.21 1019.57 1019.85 1019.81 1019.69 1019.57 1019.41 1019.37 1019.17 1018.89 1018.77 1018.77 1018.73 1018.45 1018.33 1018.45 1018.65 1018.77 1018.77 1018.81 1018.77
1018.57 1018.85 1018.89 1018.93 1019.05 1019.25 1019.17 1019.17 1019.29 1019.45 1019.49 1019.57 1019.61 1019.57 1019.49 1019.37 1019.29 1019.45 1019.73 1019.89 1020.05 1020.13 1020.21 1020.17 1020.25 1020.25 1020.21 1020.25 1020.13 1020.13 1020.05 1019.97 1019.93 1019.93 1019.97 1020.01 1020.01 1020.01 1019.97 1019.89 1019.77 1019.53 1019.21 1019.73 1020.17 1020.25 1020.13 1020.09 1019.93 1019.73 1019.53 1019.21 1019.01 1019.01 1018.93 1018.69 1018.41 1018.29 1018.37 1018.61 1018.89 1019.13 1019.09
1018.73 1018.85 1019.01 1019.17 1019.05 1019.09 1019.29 1019.41 1019.45 1019.57 1019.61 1019.81 1019.93 1019.93 1019.81 1019.69 1019.77 1019.97 1020.17 1020.29 1020.29 1020.37 1020.53 1020.57 1020.65 1020.57 1020.53 1020.57 1020.49 1020.41 1020.33 1020.17 1020.09 1020.17 1020.25 1020.25 1020.29 1020.21 1020.09 1019.93 1019.73 1019.61 1019.45 1019.89 1020.21 1020.29 1020.09 1019.85 1019.77 1019.85 1019.77 1019.57 1019.33 1019.09 1019.13 1018.93 1018.57 1018.45 1018.33 1018.37 1018.65 1019.17 1019.33
1018.93 1019.13 1019.21 1019.17 1019.17 1019.33 1019.61 1019.77 1019.81 1019.93 1019.93 1020.05 1020.29 1020.33 1020.13 1020.05 1020.09 1020.29 1020.61 1020.69 1020.73 1020.73 1020.85 1020.93 1020.89 1020.81 1020.81 1020.77 1020.69 1020.61 1020.53 1020.41 1020.33 1020.37 1020.41 1020.41 1020.41 1020.29 1020.25 1020.13 1019.97 1019.77 1019.69 1019.81 1019.89 1019.89 1019.81 1019.97 1019.97 1019.85 1019.77 1019.57 1019.33 1019.25 1019.13 1018.85 1018.61 1018.49 1018.49 1018.41 1018.37 1018.81 1019.29
1019.25 1019.37 1019.53 1019.41 1019.41 1019.49 1019.77 1019.81 1019.77 1020.01 1020.37 1020.65 1020.85 1020.61 1020.49 1020.45 1020.57 1020.85 1021.09 1021.13 1020.97 1020.93 1021.05 1021.09 1021.01 1020.89 1020.77 1020.69 1020.65 1020.61 1020.57 1020.49 1020.45 1020.45 1020.49 1020.53 1020.49 1020.41 1020.37 1020.25 1020.09 1020.05 1019.93 1019.77 1019.65 1019.61 1019.53 1019.41 1019.41 1019.45 1019.29 1019.01 1019.05 1019.29 1019.13 1018.89 1018.53 1018.37 1018.49 1018.61 1018.41 1018.45 1019.17
1019.25 1019.29 1019.45 1019.57 1019.77 1019.77 1020.05 1020.29 1020.45 1020.69 1020.77 1020.89 1020.89 1020.85 1020.85 1020.85 1021.01 1021.37 1021.45 1021.37 1021.29 1021.41 1021.33 1021.13 1020.93 1020.77 1020.73 1020.73 1020.73 1020.69 1020.65 1020.61 1020.65 1020.65 1020.57 1020.61 1020.65 1020.61 1020.57 1020.49 1020.41 1020.25 1020.13 1019.97 1019.69 1019.57 1019.49 1019.37 1019.25 1019.17 1019.05 1018.81 1018.69 1018.73 1018.69 1018.53 1018.53 1018.37 1018.41 1018.49 1018.45 1018.49 1019.29
1019.57 1019.73 1019.81 1019.85 1019.93 1020.05 1020.37 1020.61 1020.81 1020.93 1021.01 1021.01 1020.89 1020.85 1020.89 1020.93 1021.21 1021.53 1021.53 1021.49 1021.61 1021.61 1021.41 1021.25 1021.13 1021.05 1021.01 1021.01 1020.97 1020.89 1020.85 1020.85 1020.85 1020.81 1020.81 1020.73 1020.69 1020.77 1020.77 1020.65 1020.53 1020.41 1020.33 1020.17 1020.09 1019.93 1019.77 1019.61 1019.45 1019.33 1019.21 1018.97 1018.77 1018.69 1018.57 1018.37 1018.41 1018.49 1018.41 1018.33 1018.33 1018.73 1019.45
1019.77 1019.97 1020.17 1020.25 1020.41 1020.41 1020.41 1020.85 1021.13 1021.29 1021.37 1021.29 1021.17 1021.13 1021.17 1021.13 1021.37 1021.53 1021.53 1021.65 1021.73 1021.61 1021.45 1021.33 1021.29 1021.25 1021.25 1021.29 1021.29 1021.29 1021.21 1021.17 1021.13 1021.13 1021.01 1020.97 1020.97 1020.97 1021.01 1020.89 1020.73 1020.57 1020.45 1020.45 1020.37 1020.29 1020.17 1020.01 1019.85 1019.77 1019.65 1019.45 1019.17 1018.93 1018.85 1018.77 1018.69 1018.73 1018.69 1018.53 1018.53 1018.73 1019.21
1019.73 1019.89 1020.21 1020.37 1020.49 1020.69 1020.69 1021.09 1021.29 1021.41 1021.49 1021.49 1021.41 1021.37 1021.33 1021.33 1021.57 1021.61 1021.65 1021.81 1021.77 1021.61 1021.45 1021.45 1021.45 1021.41 1021.49 1021.61 1021.69 1021.65 1021.61 1021.49 1021.41 1021.37 1021.29 1021.25 1021.17 1021.13 1021.17 1021.09 1020.97 1020.85 1020.77 1020.73 1020.73 1020.69 1020.57 1020.41 1020.21 1020.13 1020.13 1020.05 1019.77 1019.41 1019.25 1019.17 1019.13 1019.09 1018.89 1018.77 1018.85 1019.17 1019.49
1019.53 1019.85 1020.05 1020.33 1020.65 1020.69 1020.81 1021.05 1021.37 1021.49 1021.61 1021.65 1021.57 1021.57 1021.57 1021.49 1021.57 1021.73 1021.93 1021.97 1021.77 1021.69 1021.65 1021.61 1021.57 1021.57 1021.73 1021.85 1021.93 1021.93 1021.89 1021.77 1021.69 1021.65 1021.57 1021.49 1021.45 1021.45 1021.41 1021.33 1021.17 1021.17 1021.05 1020.97 1020.93 1020.89 1020.89 1020.73 1020.53 1020.49 1020.45 1020.33 1020.29 1020.13 1019.85 1019.61 1019.45 1019.29 1019.01 1018.89 1018.97 1019.25 1019.65
1019.77 1020.21 1020.29 1020.41 1020.69 1020.81 1020.97 1021.09 1021.21 1021.37 1021.65 1021.77 1021.81 1021.81 1021.85 1021.93 1021.89 1022.05 1022.25 1022.05 1021.85 1021.77 1021.73 1021.65 1021.69 1021.81 1021.93 1022.01 1022.05 1022.09 1022.01 1021.93 1021.85 1021.81 1021.77 1021.65 1021.61 1021.57 1021.57 1021.53 1021.45 1021.37 1021.25 1021.17 1021.17 1021.09 1021.01 1020.89 1020.69 1020.61 1020.49 1020.45 1020.41 1020.33 1020.17 1019.89 1019.65 1019.49 1019.29 1019.17 1019.21 1019.29 1019.33
1019.85 1020.05 1020.21 1020.57 1020.89 1020.97 1021.13 1021.17 1021.33 1021.53 1021.69 1021.93 1022.05 1022.13 1022.25 1022.21 1022.21 1022.25 1022.17 1022.13 1022.05 1021.93 1021.85 1021.81 1021.89 1022.01 1022.05 1022.13 1022.13 1022.05 1022.01 1022.05 1021.93 1021.97 1021.97 1021.89 1021.81 1021.73 1021.65 1021.53 1021.49 1021.45 1021.37 1021.33 1021.25 1021.17 1021.05 1020.97 1020.89 1020.81 1020.69 1020.61 1020.49 1020.29 1020.09 1019.93 1019.73 1019.57 1019.37 1019.29 1019.29 1019.33 1019.33
1020.05 1020.29 1020.53 1020.69 1020.93 1021.01 1021.13 1021.25 1021.45 1021.65 1021.81 1022.09 1022.25 1022.29 1022.33 1022.33 1022.33 1022.29 1022.25 1022.25 1022.21 1022.17 1022.09 1022.13 1022.17 1022.29 1022.33 1022.33 1022.25 1022.17 1022.05 1022.05 1021.93 1022.01 1022.13 1022.05 1022.01 1021.97 1021.85 1021.69 1021.61 1021.57 1021.49 1021.45 1021.33 1021.29 1021.21 1021.17 1021.13 1021.05 1020.93 1020.81 1020.61 1020.45 1020.21 1020.09 1019.89 1019.73 1019.65 1019.53 1019.57 1019.61 1019.57
1020.33 1020.45 1020.77 1020.97 1021.05 1021.01 1021.13 1021.33 1021.53 1021.73 1021.97 1022.21 1022.25 1022.21 1022.25 1022.33 1022.37 1022.33 1022.29 1022.33 1022.33 1022.25 1022.25 1022.37 1022.37 1022.41 1022.41 1022.41 1022.37 1022.37 1022.17 1022.13 1022.09 1022.09 1022.09 1022.05 1022.01 1021.97 1021.89 1021.77 1021.73 1021.65 1021.49 1021.33 1021.17 1021.13 1021.25 1021.25 1021.13 1020.97 1020.85 1020.89 1020.81 1020.73 1020.61 1020.37 1020.21 1019.85 1019.73 1019.89 1019.97 1020.09 1019.85
1020.37 1020.65 1020.85 1020.93 1020.93 1020.97 1021.17 1021.37 1021.65 1021.89 1022.09 1022.25 1022.33 1022.29 1022.33 1022.33 1022.33 1022.33 1022.37 1022.41 1022.41 1022.37 1022.37 1022.45 1022.53 1022.53 1022.57 1022.49 1022.45 1022.37 1022.25 1022.29 1022.25 1022.17 1022.09 1022.09 1022.05 1021.97 1021.81 1021.65 1021.65 1021.57 1021.57 1021.37 1021.09 1021.05 1021.05 1021.21 1021.13 1020.89 1020.85 1020.85 1020.61 1020.57 1020.65 1020.49 1020.13 1019.77 1019.73 1019.65 1019.57 1019.53 1019.65
1020.45 1020.73 1020.85 1020.93 1021.01 1021.33 1021.45 1021.69 1021.81 1021.93 1022.05 1022.13 1022.17 1022.21 1022.25 1022.29 1022.33 1022.37 1022.41 1022.53 1022.53 1022.53 1022.57 1022.57 1022.65 1022.73 1022.73 1022.65 1022.57 1022.45 1022.33 1022.41 1022.45 1022.37 1022.29 1022.25 1022.17 1022.13 1021.97 1021.77 1021.57 1021.53 1021.41 1021.37 1021.21 1021.09 1021.01 1020.93 1020.93 1020.85 1020.77 1020.93 1020.77 1020.29 1020.21 1020.17 1020.01 1019.93 1019.77 1019.61 1019.33 1019.17 1019.05
1020.21 1020.37 1020.69 1021.01 1020.97 1021.21 1021.41 1021.69 1021.77 1021.81 1021.85 1021.93 1021.97 1022.05 1022.13 1022.21 1022.33 1022.49 1022.57 1022.61 1022.69 1022.69 1022.69 1022.73 1022.77 1022.89 1022.89 1022.85 1022.77 1022.61 1022.57 1022.57 1022.61 1022.53 1022.53 1022.49 1022.45 1022.37 1022.29 1022.17 1021.89 1021.53 1021.37 1021.29 1021.21 1021.13 1020.97 1020.85 1020.77 1020.69 1020.61 1020.53 1020.53 1020.57 1020.21 1019.85 1019.65 1019.57 1019.49 1019.33 1019.21 1019.05 1019.05
Thickness
5774 5773 5773 5773 5773 5774 5776 5780 5784 5785 5785 5784 5783 5783 5783 5782 5782 5780 5780 5779 5778 5776 5775 5776 5775 5775 5774 5774 5774 5775 5775 5776 5776 5776 5776 5776 5775 5775 5774 5774 5773 5773 5773 5774 5775 5776 5777 5777 5777 5776 5776 5776 5776 5777 5777 5776 5776 5776 5775 5775 5775 5776 5776
5767 5762 5761 5763 5767 5772 5776 5781 5785 5785 5786 5785 5784 5784 5783 5783 5783 5781 5780 5779 5778 5777 5776 5776 5775 5774 5774 5774 5774 5775 5775 5776 5777 5777 5777 5776 5776 5775 5775 5774 5774 5774 5774 5775 5776 5777 5777 5777 5777 5777 5776 5776 5777 5777 5777 5777 5777 5776 5776 5775 5775 5776 5775
5757 5754 5756 5761 5769 5775 5778 5782 5785 5787 5787 5785 5785 5785 5783 5784 5784 5783 5782 5779 5778 5777 5776 5776 5775 5775 5775 5775 5775 5775 5776 5776 5777 5777 5775 5775 5775 5775 5775 5775 5774 5775 5775 5776 5776 5777 5778 5778 5778 5777 5777 5776 5777 5777 5778 5778 5777 5777 5777 5776 5776 5775 5775
5755 5755 5759 5763 5769 5776 5779 5781 5784 5785 5785 5785 5786 5786 5785 5785 5784 5784 5783 5781 5780 5778 5777 5777 5777 5777 5778 5778 5778 5777 5777 5777 5776 5777 5776 5775 5775 5775 5774 5773 5774 5775 5775 5776 5777 5778 5778 5778 5779 5779 5778 5778 5777 5778 5778 5778 5778 5778 5777 5777 5776 5776 5776
5759 5760 5762 5763 5767 5774 5778 5779 5780 5782 5784 5786 5787 5785 5784 5783 5782 5783 5782 5783 5783 5781 5781 5780 5780 5781 5781 5781 5781 5780 5778 5778 5777 5777 5776 5777 5777 5776 5776 5775 5776 5776 5776 5778 5779 5779 5780 5779 5780 5780 5780 5779 5779 5779 5779 5779 5779 5778 5778 5778 5777 5777 5776
5759 5761 5762 5763 5766 5771 5774 5774 5774 5778 5782 5783 5783 5782 5781 5780 5779 5779 5778 5779 5779 5778 5779 5781 5782 5783 5782 5781 5781 5779 5779 5778 5778 5778 5778 5779 5780 5779 5779 5779 5779 5779 5779 5779 5779 5780 5780 5780 5780 5781 5781 5781 5781 5780 5781 5780 5780 5780 5779 5779 5778 5778 5777
5760 5761 5761 5761 5765 5768 5770 5769 5770 5774 5778 5780 5779 5778 5778 5777 5776 5776 5775 5772 5770 5770 5774 5779 5783 5783 5779 5777 5777 5777 5777 5777 5777 5778 5778 5780 5781 5781 5782 5782 5781 5780 5780 5780 5779 5779 5780 5780 5781 5782 5781 5782 5781 5782 5782 5781 5781 5781 5781 5780 5778 5779 5778
5760 5761 5760 5760 5763 5765 5765 5766 5766 5770 5774 5776 5775 5774 5773 5772 5773 5774 5773 5771 5771 5771 5774 5779 5783 5778 5773 5773 5774 5775 5777 5777 5777 5777 5777 5777 5778 5779 5780 5780 5780 5781 5780 5779 5779 5779 5779 5779 5781 5782 5782 5781 5781 5782 5782 5782 5782 5782 5782 5780 5779 5779 5779
5758 5761 5761 5762 5763 5763 5762 5762 5763 5765 5768 5769 5770 5770 5769 5769 5772 5773 5770 5770 5773 5775 5777 5780 5780 5773 5769 5771 5774 5775 5776 5777 5778 5778 5777 5776 5776 5776 5778 5779 5780 5781 5779 5778 5779 5779 5779 5780 5781 5781 5781 5781 5780 5781 5781 5782 5783 5783 5782 5781 5780 5779 5779
5756 5757 5758 5760 5761 5761 5760 5760 5761 5763 5763 5763 5764 5766 5766 5768 5773 5775 5771 5768 5770 5771 5774 5777 5774 5769 5768 5769 5771 5773 5775 5777 5778 5777 5776 5775 5775 5776 5778 5779 5780 5780 5780 5779 5778 5778 5779 5780 5780 5780 5780 5780 5780 5781 5781 5782 5783 5783 5782 5782 5781 5780 5780
5753 5753 5753 5754 5755 5756 5756 5756 5757 5759 5759 5759 5759 5761 5765 5769 5774 5775 5769 5764 5765 5767 5770 5771 5770 5768 5767 5767 5768 5770 5772 5774 5775 5775 5775 5774 5775 5775 5777 5778 5779 5779 5779 5779 5778 5778 5778 5778 5779 5779 5779 5779 5781 5782 5782 5783 5783 5783 5783 5783 5783 5782 5781
5749 5749 5748 5749 5750 5750 5751 5751 5752 5753 5754 5755 5755 5758 5764 5768 5770 5769 5763 5759 5762 5766 5767 5766 5765 5765 5765 5766 5766 5767 5769 5771 5773 5772 5772 5773 5774 5775 5776 5776 5777 5777 5778 5778 5778 5779 5779 5779 5778 5778 5778 5779 5781 5782 5783 5784 5784 5783 5784 5784 5783 5782 5782
5743 5745 5745 5745 5746 5745 5746 5747 5747 5748 5749 5750 5752 5756 5761 5763 5763 5762 5761 5762 5764 5766 5766 5765 5764 5764 5763 5763 5763 5764 5766 5768 5770 5771 5771 5771 5773 5773 5774 5775 5776 5776 5777 5778 5778 5778 5779 5779 5779 5779 5779 5779 5780 5781 5783 5784 5784 5784 5784 5784 5783 5783 5782
5737 5738 5739 5740 5739 5740 5740 5741 5743 5744 5746 5748 5749 5753 5759 5761 5760 5760 5762 5764 5765 5764 5764 5765 5763 5761 5759 5757 5756 5758 5762 5765 5767 5769 5770 5770 5770 5772 5773 5774 5774 5775 5776 5777 5777 5777 5777 5778 5778 5780 5780 5780 5780 5781 5782 5783 5783 5784 5784 5783 5783 5783 5782
5730 5731 5733 5733 5733 5734 5735 5736 5739 5740 5742 5746 5748 5750 5754 5756 5756 5758 5760 5762 5761 5760 5761 5761 5759 5757 5756 5754 5753 5753 5755 5758 5763 5766 5767 5767 5768 5768 5770 5771 5772 5773 5774 5775 5776 5776 5777 5777 5778 5779 5780 5781 5781 5781 5781 5781 5782 5784 5784 5784 5783 5783 5783
5724 5726 5727 5728 5728 5729 5731 5732 5734 5736 5738 5743 5745 5747 5749 5750 5752 5755 5757 5758 5757 5756 5757 5758 5756 5757 5758 5759 5758 5756 5753 5752 5755 5759 5762 5763 5764 5764 5766 5768 5769 5770 5770 5772 5775 5776 5776 5777 5778 5778 5779 5780 5781 5781 5781 5781 5782 5784 5785 5785 5785 5784 5783
5720 5721 5722 5724 5725 5726 5728 5729 5730 5732 5735 5738 5742 5745 5747 5748 5751 5753 5753 5754 5753 5753 5756 5756 5756 5756 5757 5757 5758 5758 5755 5751 5751 5754 5757 5758 5760 5762 5764 5765 5766 5766 5767 5769 5771 5773 5775 5776 5777 5778 5779 5780 5781 5781 5782 5781 5783 5784 5784 5785 5785 5784 5784
5716 5717 5718 5719 5722 5724 5725 5726 5728 5729 5731 5733 5738 5740 5742 5746 5749 5750 5751 5751 5751 5752 5753 5755 5755 5753 5751 5751 5752 5752 5753 5751 5749 5750 5752 5755 5757 5760 5762 5764 5764 5764 5765 5767 5769 5771 5773 5774 5776 5777 5779 5779 5780 5781 5782 5783 5784 5784 5783 5783 5783 5783 5783
5712 5713 5714 5715 5717 5719 5722 5723 5725 5726 5728 5730 5733 5734 5736 5740 5743 5746 5748 5747 5746 5747 5749 5749 5749 5747 5746 5746 5747 5746 5747 5747 5747 5747 5749 5752 5754 5756 5759 5760 5762 5763 5764 5765 5767 5769 5769 5771 5774 5776 5777 5777 5777 5779 5781 5782 5783 5782 5782 5781 5782 5782 5782
5711 5711 5712 5712 5714 5717 5718 5719 5721 5722 5724 5726 5728 5730 5732 5733 5735 5739 5741 5742 5741 5741 5741 5741 5740 5740 5741 5741 5743 5743 5744 5744 5744 5745 5747 5749 5751 5753 5754 5755 5758 5761 5762 5763 5764 5764 5765 5766 5768 5771 5773 5775 5775 5776 5777 5778 5779 5779 5779 5779 5779 5780 5780
5708 5708 5708 5708 5710 5713 5714 5715 5715 5717 5719 5721 5723 5726 5728 5728 5730 5732 5734 5734 5734 5734 5735 5734 5734 5735 5736 5737 5739 5741 5742 5742 5742 5743 5744 5746 5748 5750 5751 5752 5754 5757 5759 5759 5758 5758 5759 5761 5763 5766 5769 5771 5772 5773 5773 5774 5776 5775 5775 5776 5776 5777 5778
5705 5706 5705 5706 5708 5708 5709 5711 5711 5711 5713 5715 5718 5720 5722 5724 5725 5726 5727 5728 5728 5728 5729 5729 5729 5731 5732 5733 5735 5737 5738 5739 5740 5741 5741 5743 5744 5746 5747 5749 5750 5753 5755 5754 5751 5752 5754 5756 5758 5760 5764 5767 5769 5768 5769 5771 5774 5774 5773 5773 5772 5772 5774
5703 5702 5702 5704 5704 5704 5706 5706 5707 5707 5708 5709 5711 5713 5715 5718 5720 5721 5721 5722 5722 5723 5724 5724 5725 5726 5727 5728 5730 5732 5734 5736 5737 5738 5739 5740 5741 5741 5744 5745 5746 5750 5752 5749 5746 5747 5749 5751 5753 5755 5758 5761 5763 5764 5764 5767 5770 5772 5772 5772 5770 5769 5769
5699 5698 5699 5700 5700 5701 5701 5701 5701 5702 5703 5704 5704 5705 5709 5712 5713 5714 5715 5716 5717 5718 5718 5719 5720 5721 5722 5723 5724 5726 5729 5732 5733 5734 5734 5735 5736 5737 5739 5742 5744 5747 5749 5746 5743 5743 5746 5749 5751 5752 5753 5755 5757 5759 5760 5762 5766 5768 5769 5770 5770 5767 5766
5692 5692 5692 5694 5696 5696 5695 5695 5697 5697 5698 5699 5697 5698 5702 5705 5706 5707 5707 5708 5710 5712 5713 5714 5714 5716 5718 5718 5720 5722 5724 5727 5729 5730 5731 5731 5732 5734 5736 5738 5741 5743 5745 5744 5743 5743 5745 5746 5747 5748 5750 5752 5753 5754 5756 5759 5763 5765 5765 5766 5767 5766 5764
5685 5685 5686 5687 5689 5690 5689 5690 5691 5692 5691 5691 5691 5692 5695 5696 5698 5698 5698 5700 5704 5705 5707 5708 5710 5713 5715 5716 5717 5718 5719 5722 5724 5725 5726 5726 5727 5729 5731 5733 5736 5739 5740 5742 5743 5744 5745 5746 5747 5748 5750 5752 5753 5753 5754 5757 5761 5763 5762 5761 5763 5765 5762
5678 5679 5680 5681 5682 5683 5683 5682 5683 5683 5684 5685 5686 5688 5689 5690 5690 5689 5690 5694 5696 5697 5700 5703 5706 5709 5711 5712 5714 5715 5716 5718 5718 5719 5721 5722 5723 5725 5726 5728 5730 5732 5735 5737 5739 5742 5743 5745 5747 5748 5749 5752 5753 5753 5754 5756 5759 5760 5760 5758 5759 5761 5757
5669 5671 5672 5673 5675 5675 5675 5674 5674 5674 5676 5678 5681 5683 5684 5685 5684 5683 5684 5687 5688 5690 5694 5697 5699 5702 5704 5705 5707 5709 5710 5712 5713 5714 5716 5717 5719 5719 5720 5722 5724 5726 5729 5731 5733 5735 5737 5739 5742 5743 5744 5747 5749 5750 5751 5753 5754 5755 5755 5755 5757 5756 5753
5661 5662 5664 5665 5666 5667 5668 5666 5666 5667 5668 5670 5673 5675 5678 5679 5679 5678 5680 5681 5682 5685 5689 5691 5693 5695 5696 5698 5700 5701 5703 5705 5706 5708 5709 5710 5712 5713 5714 5716 5718 5720 5723 5724 5725 5728 5730 5732 5735 5736 5737 5739 5742 5744 5745 5746 5747 5748 5748 5750 5751 5750 5748
5655 5655 5657 5658 5657 5659 5661 5659 5658 5659 5660 5662 5665 5667 5669 5672 5672 5674 5675 5675 5677 5680 5683 5685 5686 5687 5688 5689 5691 5693 5695 5697 5699 5700 5701 5703 5705 5707 5708 5710 5712 5714 5716 5717 5719 5720 5722 5725 5727 5729 5730 5730 5733 5736 5738 5739 5740 5741 5743 5744 5745 5744 5742
5651 5651 5650 5651 5651 5652 5653 5653 5652 5652 5653 5655 5657 5659 5661 5664 5666 5667 5668 5669 5671 5674 5675 5678 5679 5681 5681 5682 5683 5685 5687 5689 5691 5692 5694 5696 5698 5700 5702 5703 5705 5708 5709 5711 5712 5713 5715 5718 5720 5722 5723 5724 5725 5727 5730 5732 5733 5734 5737 5739 5739 5737 5736
5644 5644 5643 5642 5642 5644 5645 5646 5647 5647 5647 5647 5649 5650 5652 5654 5656 5658 5659 5662 5665 5667 5669 5671 5672 5673 5674 5674 5676 5678 5679 5681 5683 5685 5687 5689 5691 5693 5695 5697 5699 5701 5703 5704 5706 5707 5709 5711 5714 5715 5718 5719 5720 5721 5723 5726 5728 5729 5731 5732 5733 5732 5733
5637 5637 5636 5635 5635 5635 5637 5638 5639 5640 5640 5640 5641 5642 5643 5645 5647 5649 5652 5655 5657 5660 5662 5664 5665 5665 5666 5668 5670 5672 5673 5674 5677 5678 5679 5681 5684 5686 5688 5690 5692 5694 5696 5698 5700 5701 5703 5705 5707 5709 5712 5714 5716 5717 5719 5721 5722 5723 5725 5727 5727 5727 5728
5627 5628 5628 5628 5628 5629 5630 5631 5632 5632 5632 5632 5633 5634 5635 5637 5639 5641 5644 5647 5649 5652 5654 5656 5657 5658 5659 5660 5663 5665 5667 5669 5671 5672 5673 5674 5676 5678 5680 5683 5685 5687 5689 5692 5694 5695 5697 5698 5699 5702 5704 5707 5709 5711 5712 5714 5715 5717 5718 5719 5720 5720 5722
5617 5619 5620 5620 5621 5623 5624 5624 5624 5624 5624 5624 5625 5627 5628 5630 5632 5634 5637 5639 5642 5645 5647 5648 5649 5650 5651 5653 5655 5657 5660 5662 5664 5666 5667 5669 5670 5672 5674 5677 5679 5680 5682 5686 5688 5690 5691 5692 5693 5696 5698 5700 5701 5703 5705 5706 5708 5711 5712 5712 5712 5713 5714
5609 5610 5611 5613 5614 5616 5617 5616 5616 5616 5615 5616 5618 5620 5621 5623 5625 5627 5629 5632 5634 5637 5638 5639 5641 5642 5643 5646 5647 5649 5652 5655 5657 5659 5661 5662 5664 5666 5668 5671 5673 5674 5676 5679 5681 5684 5685 5686 5688 5690 5692 5693 5696 5698 5699 5700 5703 5705 5706 5707 5708 5709 5710
5604 5604 5605 5607 5608 5608 5608 5607 5607 5608 5608 5610 5611 5613 5615 5617 5618 5620 5622 5623 5626 5628 5630 5631 5632 5634 5635 5638 5640 5642 5645 5647 5648 5651 5653 5655 5657 5659 5661 5664 5666 5668 5670 5672 5674 5676 5678 5680 5682 5684 5685 5686 5689 5692 5694 5696 5698 5700 5700 5701 5704 5706 5707
5599 5600 5600 5600 5602 5600 5600 5600 5601 5601 5603 5604 5605 5607 5609 5610 5611 5613 5614 5616 5618 5619 5621 5622 5624 5625 5627 5629 5632 5635 5637 5639 5640 5643 5644 5645 5648 5650 5652 5655 5658 5661 5664 5666 5668 5670 5671 5673 5675 5677 5679 5681 5683 5684 5688 5690 5693 5694 5696 5697 5699 5700 5702